#timestamp,LO_Frequency,Hit 
1601046015.2,286047001.3,N
1601046035.1,286047004.4,N
1601046036.0,286047004.4,N
1601046055.8,286047001.6,N
1601046075.6,286046999.7,N
1601046095.5,286047001.4,N
1601046115.3,286047003.9,N
1601046135.1,286047001.8,N
1601046155.8,286047003.9,N
1601046175.7,286047002.5,N
1601046195.5,286047001.6,N
1601046215.3,286047001.7,N
1601046235.2,286047003.8,N
1601046255.0,286047004.4,N
1601046255.9,286047004.4,N
1601046275.7,286047004.4,N
1601046295.6,286047002.6,N
1601046315.4,286047002.5,N
1601046335.2,286047002.5,N
1601046355.1,286047002.6,N
1601046356.0,286047002.6,N
1601046375.8,286047002.3,N
1601046395.6,286047001.8,N
1601046415.5,286046999.8,N
1601046435.3,286047002.8,N
1601046455.1,286047001.3,N
1601046475.9,286047002.1,N
1601046495.7,286047002.5,N
1601046515.5,286047002.1,N
1601046535.4,286047002.5,N
1601046555.2,286047001.6,N
1601046575.0,286047002.7,N
1601046575.9,286047002.7,N
1601046595.8,286047002.1,N
1601046615.6,286047002.7,N
1601046635.4,286047002.8,N
1601046655.3,286047002.2,N
1601046675.1,286047001.7,N
1601046676.0,286047001.7,N
1601046695.8,286047002.5,N
1601046715.7,286047000.1,N
1601046735.5,286047002.6,N
1601046755.3,286047000.2,N
1601046775.2,286046999.8,N
1601046795.9,286047002.7,N
1601046815.7,286047002.5,N
1601046835.5,286047001.8,N
1601046855.4,286047000.1,N
1601046875.2,286047002.3,N
1601046895.0,286047002.3,N
1601046895.9,286047002.3,N
1601046915.8,286047002.6,N
1601046935.6,286046999.7,N
1601046955.4,286047001.9,N
1601046975.3,286047001.7,N
1601046995.1,286047001.6,N
1601047015.8,286047002.3,N
1601047035.7,286046999.7,N
1601047055.5,286047000.0,N
1601047075.3,286047002.3,N
1601047095.2,286047001.6,N
1601047115.9,286047001.8,N
1601047135.7,286047001.9,N
1601047155.6,286047002.2,N
1601047175.4,286047002.6,N
1601047195.2,286047001.3,N
1601047215.1,286047001.9,N
1601047216.0,286047001.9,N
1601047235.8,286047002.8,N
1601047255.6,286047001.5,N
1601047275.5,286046999.8,N
1601047295.3,286046999.8,N
1601047315.1,286047002.1,N
1601047335.9,286047000.4,N
1601047355.7,286047002.2,N
1601047375.5,286046999.7,N
1601047395.4,286047001.1,N
1601047415.2,286047000.6,N
1601047435.0,286046998.1,N
1601047435.9,286046998.1,N
1601047455.8,286047002.8,N
1601047475.6,286047002.7,N
1601047495.4,286047000.7,N
1601047515.3,286047000.5,N
1601047535.1,286047000.3,N
1601047536.0,286047000.3,N
1601047555.8,286047000.4,N
1601047575.7,286047000.6,N
1601047595.5,286047000.7,N
1601047615.3,286046998.6,N
1601047635.1,286047000.5,N
1601047655.9,286046998.1,N
1601047675.7,286047000.0,N
1601047695.5,286047000.8,N
1601047715.4,286047000.6,N
1601047735.2,286047001.2,N
1601047755.0,286047001.0,N
1601047755.9,286047001.0,N
1601047775.8,286047000.0,N
1601047795.6,286046998.7,N
1601047815.4,286047000.8,N
1601047835.3,286047001.0,N
1601047855.1,286046998.7,N
1601047875.8,286046998.2,N
1601047895.7,286047000.8,N
1601047915.5,286047001.0,N
1601047935.3,286047000.5,N
1601047955.2,286046998.7,N
1601047975.9,286046998.7,N
1601047995.7,286046998.7,N
1601048015.6,286046998.7,N
1601048035.4,286046998.8,N
1601048055.2,286047000.6,N
1601048075.1,286047000.7,N
1601048076.0,286047000.7,N
1601048095.8,286047000.9,N
1601048115.6,286047000.6,N
1601048135.5,286047000.4,N
1601048155.3,286046998.3,N
1601048175.1,286046998.2,N
1601048195.9,286046998.5,N
1601048215.7,286046998.2,N
1601048235.5,286047001.0,N
1601048255.4,286047001.1,N
1601048275.2,286047000.7,N
1601048295.0,286046998.5,N
1601048295.9,286046998.5,N
1601048315.8,286046998.5,N
1601048335.6,286046999.3,N
1601048355.4,286047001.2,N
1601048375.2,286047001.1,N
1601048395.1,286046998.7,N
1601048396.0,286046998.7,N
1601048415.8,286047000.7,N
1601048435.6,286046998.8,N
1601048455.5,286046998.6,N
1601048475.3,286046999.3,N
1601048495.1,286046998.6,N
1601048515.9,286046999.2,N
1601048535.7,286046998.8,N
1601048555.5,286047000.7,N
1601048575.4,286046998.8,N
1601048595.2,286047000.8,N
1601048615.0,286046998.9,N
1601048615.9,286046998.9,N
1601048635.8,286046998.2,N
1601048655.6,286047001.2,N
1601048675.4,286046999.2,N
1601048695.3,286046999.1,N
1601048715.1,286046999.4,N
1601048735.8,286046998.6,N
1601048755.7,286046998.5,N
1601048775.5,286046998.1,N
1601048795.3,286046998.9,N
1601048815.2,286046999.3,N
1601048835.9,286046998.8,N
1601048855.7,286046998.4,N
1601048875.6,286046998.8,N
1601048895.4,286046999.3,N
1601048915.2,286046998.9,N
1601048935.1,286046999.5,N
1601048936.0,286046999.5,N
1601048955.8,286046998.8,N
1601048975.6,286046998.8,N
1601048995.5,286046999.1,N
1601049015.3,286046998.4,N
1601049035.1,286046999.5,N
1601049055.8,286046998.9,N
1601049075.7,286046996.8,P
1601049095.5,286046998.7,N
1601049115.4,286046998.2,N
1601049135.2,286046999.3,N
1601049155.0,286046998.4,N
1601049155.9,286046998.4,N
1601049175.8,286046998.5,N
1601049195.6,286046998.1,N
1601049215.4,286046999.4,N
1601049235.3,286046998.7,N
1601049255.1,286046999.1,N
1601049256.0,286046999.1,N
1601049275.8,286046999.5,N
1601049295.7,286046998.9,N
1601049315.5,286046999.1,N
1601049335.3,286046998.8,N
1601049355.2,286046998.9,N
1601049375.9,286046998.2,P
1601049395.7,286047000.2,N
1601049415.6,286047000.0,N
1601049435.4,286047000.1,N
1601049455.2,286047002.8,P
1601049475.1,286047000.1,N
1601049476.0,286047000.1,N
1601049495.8,286046999.8,N
1601049515.6,286047002.7,N
1601049535.5,286047002.6,N
1601049555.3,286047002.5,N
1601049575.1,286047000.2,N
1601049595.9,286046999.8,N
